Tracking 30995 objects as of 5-Jul-2025
HD Live streaming from Space Station
objects crossing your sky now

STARLINK-31048

Track STARLINK-31048 now!
10-day predictions
STARLINK-31048 is classified as:


NORAD ID: 58544
Int'l Code: 2023-192P
Perigee: 481.4 km
Apogee: 483.4 km
Inclination: 53.2 °
Period: 94.1 minutes
Semi major axis: 6853 km
RCS: Unknown
Launch date: December 8, 2023
Source: United States (US)
Launch site: AIR FORCE WESTERN TEST RANGE (AFWTR)
Your satellite tracking list
ATLAS 2A CENTAUR R/B
Track 1 satellite(s)




NASA's NSSDC Master Catalog

Two Line Element Set (TLE):
1 58544U 23192P   25186.04702224  .00001341  00000-0  57431-4 0  9999
2 58544  53.1604 132.7281 0001405  86.8896 273.2265 15.30184087 88073
Source of the keplerian elements: AFSPC